CW8078 Weather Reports


time (UTC)temp
F
wind
direction
speed
knots
gust
knots
rain 1hr
in
rain 24hr
in
rain mn
in
humidity
%
barometer
mb
20260508181803 63 163 0.0 0.0 0.00 0.00 0.00 70 1008.4
20260508181303 63 163 0.0 0.0 0.00 0.00 0.00 70 1008.3
20260508180804 63 163 0.0 0.0 0.00 0.00 0.00 70 1008.3
20260508174804 63 164 0.0 0.0 0.00 0.00 0.00 71 1008.5
20260508174304 63 166 0.0 0.0 0.00 0.00 0.00 69 1008.5
20260508173803 63 161 0.0 0.0 0.00 0.00 0.00 70 1008.5
20260508173303 63 161 0.0 2.6 0.00 0.00 0.00 69 1008.6
20260508171803 62 163 0.0 1.7 0.00 0.00 0.00 71 1008.7
20260508171303 62 152 0.0 0.0 0.00 0.00 0.00 70 1008.8
20260508170803 61 180 0.0 0.0 0.00 0.00 0.00 72 1008.9
20260508170303 60 180 0.0 0.0 0.00 0.00 0.00 73 1009.1
20260508164804 61 180 0.0 0.0 0.00 0.00 0.00 71 1009.5
20260508164304 60 180 0.0 0.0 0.00 0.00 0.00 72 1009.5
20260508163304 60 180 0.0 0.0 0.00 0.00 0.00 72 1009.5
20260508160804 59 180 0.0 0.0 0.00 0.00 0.00 75 1009.9
20260508160303 59 180 0.0 0.0 0.00 0.00 0.00 73 1010.0
20260508154803 59 180 0.0 0.0 0.00 0.00 0.00 74 1010.1
20260508154303 59 180 0.0 0.0 0.00 0.00 0.00 74 1010.3
20260508153803 59 180 0.0 0.0 0.00 0.00 0.00 74 1010.3
20260508153303 58 180 0.0 0.0 0.00 0.00 0.00 75 1010.3
20260508151804 58 180 0.0 0.0 0.00 0.00 0.00 75 1010.3
20260508151303 57 180 0.0 0.0 0.00 0.00 0.00 76 1010.4
20260508150304 57 180 0.0 0.0 0.00 0.00 0.00 75 1010.3
20260508144304 56 181 0.0 0.0 0.00 0.00 0.00 76 1010.2
20260508143803 56 181 0.0 0.0 0.00 0.00 0.00 76 1010.3
20260508143303 56 181 0.0 0.0 0.00 0.00 0.00 76 1010.2
20260508141802 56 142 0.0 0.0 0.00 0.00 0.00 76 1010.4
20260508141302 56 142 0.0 0.0 0.00 0.00 0.00 77 1010.4
20260508140802 56 142 0.0 0.0 0.00 0.00 0.00 76 1010.4
20260508134802 54 142 0.0 0.0 0.00 0.00 0.00 79 1010.6
20260508134302 54 142 0.0 0.0 0.00 0.00 0.00 80 1010.7
20260508133802 54 142 0.0 0.0 0.00 0.00 0.00 80 1010.8
20260508133302 54 142 0.0 0.0 0.00 0.00 0.00 80 1010.9
20260508131802 53 142 0.0 0.0 0.00 0.00 0.00 80 1010.6
20260508131302 53 142 0.0 0.0 0.00 0.00 0.00 82 1010.5
20260508130802 53 142 0.0 0.0 0.00 0.00 0.00 80 1010.5
20260508130302 53 142 0.0 0.0 0.00 0.00 0.00 80 1010.5
20260508124802 52 142 0.0 0.0 0.00 0.00 0.00 80 1010.4
20260508124302 52 142 0.0 0.0 0.00 0.00 0.00 79 1010.4
20260508123802 52 142 0.0 0.0 0.00 0.00 0.00 81 1010.4
20260508121302 51 173 0.0 0.0 0.00 0.00 0.00 81 1010.2
20260508120802 51 171 0.0 0.0 0.00 0.00 0.00 80 1010.1
20260508120302 51 161 0.0 0.0 0.00 0.00 0.00 80 1009.9
20260508114802 50 157 0.0 0.0 0.00 0.00 0.00 82 1009.9
20260508114302 49 157 0.0 0.0 0.00 0.00 0.00 82 1009.9
20260508113802 49 157 0.0 0.0 0.00 0.00 0.00 82 1009.9
20260508113303 49 157 0.0 0.0 0.00 0.00 0.00 82 1009.9
20260508111302 49 157 0.0 0.0 0.00 0.00 0.00 82 1009.8
20260508110802 49 157 0.0 0.0 0.00 0.00 0.00 82 1009.8
20260508110302 49 157 0.0 0.0 0.00 0.00 0.00 82 1009.8
20260508104802 49 157 0.0 0.0 0.00 0.00 0.00 81 1009.7
20260508104302 49 157 0.0 0.0 0.00 0.00 0.00 82 1009.6
20260508103802 49 157 0.0 0.0 0.00 0.00 0.00 82 1009.8
20260508103302 49 157 0.0 0.0 0.00 0.00 0.00 82 1009.7
20260508101802 49 157 0.0 0.0 0.00 0.00 0.00 82 1009.7
20260508101302 50 157 0.0 0.0 0.00 0.00 0.00 82 1009.7
20260508100802 50 157 0.0 0.0 0.00 0.00 0.00 81 1009.7
20260508100302 50 157 0.0 0.0 0.00 0.00 0.00 81 1009.7
20260508094802 50 157 0.0 0.0 0.00 0.00 0.00 81 1009.7
20260508094302 50 157 0.0 0.0 0.00 0.00 0.00 81 1009.8
20260508093802 50 158 0.0 0.0 0.00 0.00 0.00 81 1009.8
20260508093302 50 158 0.0 0.0 0.00 0.00 0.00 82 1009.8
20260508091802 50 158 0.0 0.0 0.00 0.00 0.00 82 1009.8
20260508090802 50 158 0.0 0.0 0.00 0.00 0.00 83 1009.8
20260508090303 49 158 0.0 0.0 0.00 0.00 0.00 84 1009.8
20260508083802 48 158 0.0 0.0 0.00 0.00 0.00 86 1009.9
20260508081802 48 158 0.0 0.0 0.00 0.00 0.00 87 1010.1
20260508081302 48 158 0.0 0.0 0.00 0.00 0.00 86 1010.2
20260508080802 48 158 0.0 0.0 0.00 0.00 0.00 86 1010.3
20260508080302 48 158 0.0 0.0 0.00 0.00 0.00 86 1010.3
20260508074802 48 158 0.0 0.0 0.00 0.00 0.00 86 1010.3
20260508074302 48 158 0.0 0.0 0.00 0.00 0.00 86 1010.3
20260508073802 48 158 0.0 0.0 0.00 0.00 0.00 86 1010.4
20260508073302 48 158 0.0 0.0 0.00 0.00 0.00 86 1010.5
20260508071802 48 158 0.0 0.0 0.00 0.00 0.00 86 1010.6
20260508071302 48 158 0.0 0.0 0.00 0.00 0.00 87 1010.7
20260508070802 48 158 0.0 0.0 0.00 0.00 0.00 87 1010.8
20260508070302 48 158 0.0 0.0 0.00 0.00 0.00 87 1010.8
20260508064802 48 158 0.0 0.0 0.00 0.00 0.00 86 1010.8
20260508064302 48 158 0.0 0.0 0.00 0.00 0.00 86 1010.9
20260508063802 48 158 0.0 0.0 0.00 0.00 0.00 86 1011.0
20260508063302 48 158 0.0 0.0 0.00 0.00 0.00 86 1011.1
20260508061302 49 158 0.0 0.0 0.00 0.00 0.00 86 1011.3
20260508060802 49 158 0.0 0.0 0.00 0.00 0.00 86 1011.4
20260508060302 49 158 0.0 0.0 0.00 0.00 0.00 85 1011.4
20260508054802 49 158 0.0 0.0 0.00 0.00 0.00 84 1011.4
20260508054302 49 158 0.0 0.0 0.00 0.00 0.00 84 1011.5
20260508053302 49 158 0.0 0.0 0.00 0.00 0.00 83 1011.6
20260508051803 50 158 0.0 0.0 0.00 0.00 0.00 82 1011.6
20260508051302 50 158 0.0 0.0 0.00 0.00 0.00 81 1011.6
20260508050802 51 158 0.0 0.0 0.00 0.00 0.00 80 1011.7
20260508050303 51 158 0.0 0.0 0.00 0.00 0.00 80 1011.7
20260508044803 52 158 0.0 0.0 0.00 0.00 0.00 79 1011.8
20260508043803 52 158 0.0 0.0 0.00 0.00 0.00 77 1011.8
20260508043303 53 158 0.0 0.0 0.00 0.00 0.00 76 1011.8
20260508041803 53 158 0.0 0.0 0.00 0.00 0.00 76 1011.9
20260508041303 54 158 0.0 0.0 0.00 0.00 0.00 76 1011.9
20260508040802 54 158 0.0 0.0 0.00 0.00 0.00 75 1011.8
20260508040303 54 158 0.0 0.0 0.00 0.00 0.00 75 1011.9
20260508034802 53 158 0.0 0.0 0.00 0.00 0.00 77 1011.9
20260508034302 53 158 0.0 0.0 0.00 0.00 0.00 78 1011.8
20260508033803 52 158 0.0 0.0 0.00 0.00 0.00 78 1011.8
20260508033303 52 158 0.0 0.0 0.00 0.00 0.00 79 1011.8
20260508031802 52 158 0.0 0.0 0.00 0.00 0.00 80 1011.8
20260508031302 52 158 0.0 0.0 0.00 0.00 0.00 80 1011.8
20260508030802 52 158 0.0 0.0 0.00 0.00 0.00 78 1011.8
20260508030302 52 158 0.0 0.0 0.00 0.00 0.00 78 1011.8
20260508024803 53 158 0.0 0.0 0.00 0.00 0.00 77 1011.7
20260508024303 53 158 0.0 0.0 0.00 0.00 0.00 78 1011.7
20260508023802 53 158 0.0 0.0 0.00 0.00 0.00 77 1011.7
20260508023303 53 158 0.0 0.0 0.00 0.00 0.00 77 1011.7
20260508021302 54 158 0.0 0.0 0.00 0.00 0.00 74 1011.6
20260508020802 54 158 0.0 0.0 0.00 0.00 0.00 72 1011.6
20260508020303 55 158 0.0 0.0 0.00 0.00 0.00 73 1011.5
20260508014802 56 158 0.0 0.0 0.00 0.00 0.00 69 1011.4
20260508014302 56 158 0.0 0.0 0.00 0.00 0.00 68 1011.4
20260508013803 57 158 0.0 0.0 0.00 0.00 0.00 67 1011.4
20260508013303 57 158 0.0 0.0 0.00 0.00 0.00 67 1011.4
20260508011802 58 158 0.0 0.0 0.00 0.00 0.00 65 1011.3
20260508011302 58 158 0.0 0.0 0.00 0.00 0.00 65 1011.4
20260508010803 59 158 0.0 0.0 0.00 0.00 0.00 65 1011.4
20260508010303 59 158 0.0 0.0 0.00 0.00 0.00 63 1011.3
20260508004802 60 158 0.0 0.0 0.00 0.00 0.00 60 1011.1
20260508004302 61 158 0.0 0.0 0.00 0.00 0.00 59 1011.1
20260508003803 61 158 0.0 0.0 0.00 0.00 0.00 60 1011.1
20260508003303 62 158 0.0 0.9 0.00 0.00 0.00 58 1011.0
20260508001802 63 158 0.0 0.0 0.00 0.00 0.00 56 1010.9
20260508000803 64 158 0.0 0.0 0.00 0.00 0.00 53 1010.8
20260508000304 64 158 0.0 0.9 0.00 0.00 0.00 51 1010.8
20260507233803 66 201 0.0 0.0 0.00 0.00 0.00 47 1010.8
20260507233302 66 201 0.0 2.6 0.00 0.00 0.00 48 1010.9
20260507231802 66 201 0.0 0.9 0.00 0.00 0.00 49 1010.9
20260507231303 66 163 0.0 0.0 0.00 0.00 0.00 47 1010.9
20260507230302 65 225 0.0 0.9 0.00 0.00 0.00 50 1011.1
20260507224802 66 225 0.0 0.0 0.00 0.00 0.00 48 1011.3
20260507224302 66 216 0.0 0.0 0.00 0.00 0.00 46 1011.1
20260507223802 66 136 0.0 0.0 0.00 0.00 0.00 45 1011.3
20260507223303 66 198 0.0 4.3 0.00 0.00 0.00 46 1011.3
20260507221803 67 204 0.0 0.0 0.00 0.00 0.00 47 1011.4
20260507221303 66 194 0.0 0.0 0.00 0.00 0.00 47 1011.5
20260507220303 67 165 0.0 4.3 0.00 0.00 0.00 46 1011.4
20260507214802 66 180 0.0 0.0 0.00 0.00 0.00 47 1011.5
20260507213803 66 217 0.0 1.7 0.00 0.00 0.00 45 1011.5
20260507213303 66 212 0.0 1.7 0.00 0.00 0.00 46 1011.5
20260507211802 67 205 0.0 0.0 0.00 0.00 0.00 47 1011.6
20260507211303 67 194 0.0 0.0 0.00 0.00 0.00 48 1011.8
20260507210802 67 182 0.9 2.6 0.00 0.00 0.00 46 1011.8
20260507210303 66 204 0.0 1.7 0.00 0.00 0.00 46 1011.8
20260507204802 66 218 0.0 0.0 0.00 0.00 0.00 47 1012.2
20260507204302 66 211 0.0 2.6 0.00 0.00 0.00 46 1012.2
20260507203303 66 207 0.0 2.6 0.00 0.00 0.00 46 1012.4
20260507201302 65 202 0.0 0.0 0.00 0.00 0.00 50 1012.8
20260507200803 65 161 0.0 1.7 0.00 0.00 0.00 48 1012.8
20260507200303 65 209 0.0 0.0 0.00 0.00 0.00 48 1012.9
20260507194803 65 194 0.0 0.0 0.00 0.00 0.00 46 1013.2
20260507193804 66 209 0.0 0.0 0.00 0.00 0.00 46 1013.2
20260507193303 66 170 0.0 2.6 0.00 0.00 0.00 47 1013.3
20260507191802 66 186 0.0 2.6 0.00 0.00 0.00 44 1013.4
20260507191303 67 174 0.0 1.7 0.00 0.00 0.00 47 1013.4
20260507190803 67 169 0.0 2.6 0.00 0.00 0.00 45 1013.3
20260507190303 66 186 0.0 1.7 0.00 0.00 0.00 48 1013.4
20260507184302 66 213 0.0 0.0 0.00 0.00 0.00 45 1013.5
20260507183302 66 220 0.0 1.7 0.00 0.00 0.00 43 1013.7